Weather in Semenivka

Ukraine / Kharkiv Region     49°38′49″N   37°02′48″E
temp.,
°C
wind,
m/s
gust,
m/s
humid.,
%
clouds,
%
prec.,
mm/h
press.,
hPa
HPBL,
m
18 may, tue
tue1800:00+18s41083100 0.0 1006355
03:00+16ese2396100 0.1 100673
06:00+16se4795100 0.5 1006321
09:00+16s5893100 1.9 1006443
12:00+19s577658 1.2 1006990
15:00+20ssw6764100 2.4 10051393
18:00+19ssw587247 0.9 1005627
21:00+14s36899 1.9 1006109
19 may, wed
wed1900:00+13sse310935 0.1 1006218
03:00+12sse389696 0.1 1006183
06:00+13se3796100 0.4 1006278
09:00+14se5893100 1.3 1005744
12:00+16s5777100 0.6 1006841
15:00+17se4675100 1.2 1006779
18:00+17se4775100 1.6 1005760
21:00+12s4109214 2.2 1006217
20 may, thu
thu2000:00+10sse489790 0.0 1006201
03:00+12sse3697100 0.5 1005350
06:00+12ssw489694 0.1 1006432
09:00+13sw6991100 0.1 1008762
12:00+13sw61088100 0.3 1010773
15:00+18sw8116883 0.6 10101557
18:00+18sw586956 0.3 1011980
21:00+14ssw3779100 0.3 1012166
21 may, fri
fri2100:00+13w3684100 0.0 1013202
03:00+12wnw4884100 0.3 1015321
06:00+10n3886100 0.0 1016273
09:00+15ne4567100 0.0 1015351
12:00+19ene5659100 0.0 1015826
15:00+19ene6863100 0.1 1014844
18:00+19ene61175100 0.0 1013454
21:00+17ene51182100 0.0 1013296
22 may, sat
sat2200:00+16ne4109080 0.0 1012203
03:00+14ne4109014 0.0 1011210
06:00+14ne4892100 0.0 1011203
09:00+20e446913 0.0 1010509
12:00+24ese345999 0.0 10111049
15:00+25e3358100 0.0 10111172
18:00+24ene2269100 0.0 101154
21:00+20ne3384100 0.0 101047